View from above orbital plane
|
View from above satellite
|
Ground track
|
The orbit data is extracted from the following two-line orbital elements,
1 58U 60013A 21023.50197010 .00000081 00000-0 -27314-5 0 9996
2 58 28.3283 58.2643 0165104 91.0662 270.8803 13.46325307968825
Epoch (UTC): | 23 January 2021 12:02:50 |
Eccentricity: | 0.0165104 |
inclination: | 28.3283° |
perigee height: | 962 km |
apogee height: | 1209 km |
right ascension of ascending node: | 58.2643° |
argument of perigee: | 91.0662° |
revolutions per day: | 13.46325307 |
mean anomaly at epoch: | 270.8803° |
orbit number at epoch: | 96882 |
The dashed part of the orbit path shows where the satellite is in the earth's shadow,
|
|